| time (UTC) | temp F | wind direction | speed knots | gust knots | rain 1hr in | rain 24hr in | rain mn in | humidity % | barometer mb |
| 20260509212834 | 73 | 121 | 0.0 | 2.6 | 0.00 | 0.00 | 0.00 | 45 | 1009.4 |
| 20260509212331 | 74 | 180 | 0.0 | 0.0 | 0.00 | 0.00 | 0.00 | 45 | 1009.3 |
| 20260509211827 | 73 | 181 | 0.0 | 0.0 | 0.00 | 0.00 | 0.00 | 46 | 1009.3 |
| 20260509211323 | 72 | 128 | 0.0 | 2.6 | 0.00 | 0.00 | 0.00 | 46 | 1009.3 |
| 20260509210819 | 72 | 145 | 0.0 | 1.7 | 0.00 | 0.00 | 0.00 | 49 | 1009.0 |
| 20260509210312 | 72 | 96 | 2.6 | 2.6 | 0.00 | 0.00 | 0.00 | 47 | 1009.2 |
| 20260509205811 | 71 | 157 | 1.7 | 2.6 | 0.00 | 0.00 | 0.00 | 46 | 1009.2 |
| 20260509205307 | 72 | 96 | 2.6 | 4.3 | 0.00 | 0.00 | 0.00 | 47 | 1009.3 |
| 20260509204802 | 72 | 102 | 1.7 | 2.6 | 0.00 | 0.00 | 0.00 | 47 | 1009.0 |
| 20260509204259 | 72 | 99 | 1.7 | 1.7 | 0.00 | 0.00 | 0.00 | 47 | 1009.2 |
| 20260509203754 | 72 | 127 | 0.0 | 6.1 | 0.00 | 0.00 | 0.00 | 47 | 1009.0 |
| 20260509203252 | 72 | 122 | 1.7 | 2.6 | 0.00 | 0.00 | 0.00 | 49 | 1008.9 |
| 20260509202748 | 72 | 352 | 2.6 | 6.1 | 0.00 | 0.00 | 0.00 | 47 | 1008.8 |
| 20260509202239 | 72 | 80 | 2.6 | 4.3 | 0.00 | 0.00 | 0.00 | 46 | 1008.8 |
| 20260509201739 | 73 | 78 | 2.6 | 2.6 | 0.00 | 0.00 | 0.00 | 47 | 1009.0 |
| 20260509201236 | 73 | 334 | 0.9 | 2.6 | 0.00 | 0.00 | 0.00 | 46 | 1009.2 |
| 20260509200732 | 72 | 127 | 0.0 | 2.6 | 0.00 | 0.00 | 0.00 | 48 | 1009.2 |
| 20260509200227 | 72 | 15 | 1.7 | 1.7 | 0.00 | 0.00 | 0.00 | 47 | 1009.0 |
| 20260509195723 | 71 | 128 | 0.0 | 2.6 | 0.00 | 0.00 | 0.00 | 46 | 1009.2 |
| 20260509195218 | 72 | 164 | 0.9 | 1.7 | 0.00 | 0.00 | 0.00 | 48 | 1009.3 |
| 20260509194713 | 72 | 76 | 0.9 | 2.6 | 0.00 | 0.00 | 0.00 | 46 | 1009.4 |
| 20260509194210 | 73 | 89 | 3.5 | 6.1 | 0.00 | 0.00 | 0.00 | 46 | 1009.4 |
| 20260509193706 | 73 | 102 | 0.9 | 2.6 | 0.00 | 0.00 | 0.00 | 48 | 1009.4 |
| 20260509193206 | 72 | 176 | 2.6 | 4.3 | 0.00 | 0.00 | 0.00 | 47 | 1009.5 |
| 20260509192703 | 73 | 191 | 0.0 | 7.0 | 0.00 | 0.00 | 0.00 | 48 | 1009.6 |
| 20260509192158 | 71 | 123 | 0.9 | 7.0 | 0.00 | 0.00 | 0.00 | 47 | 1009.6 |
| 20260509191654 | 74 | 90 | 6.1 | 7.0 | 0.00 | 0.00 | 0.00 | 46 | 1009.5 |
| 20260509191150 | 73 | 91 | 4.3 | 7.0 | 0.00 | 0.00 | 0.00 | 46 | 1009.5 |
| 20260509190646 | 74 | 205 | 0.9 | 6.1 | 0.00 | 0.00 | 0.00 | 46 | 1009.7 |
| 20260509190144 | 73 | 181 | 0.9 | 2.6 | 0.00 | 0.00 | 0.00 | 46 | 1009.6 |
| 20260509185642 | 73 | 91 | 3.5 | 6.1 | 0.00 | 0.00 | 0.00 | 46 | 1009.7 |
| 20260509185137 | 72 | 153 | 2.6 | 8.7 | 0.00 | 0.00 | 0.00 | 48 | 1009.6 |
| 20260509184636 | 72 | 225 | 4.3 | 7.0 | 0.00 | 0.00 | 0.00 | 45 | 1009.8 |
| 20260509184132 | 72 | 149 | 7.8 | 16.5 | 0.00 | 0.00 | 0.00 | 49 | 1009.7 |
| 20260509183628 | 72 | 147 | 0.0 | 6.1 | 0.00 | 0.00 | 0.00 | 49 | 1009.9 |
| 20260509183124 | 70 | 124 | 4.3 | 8.7 | 0.00 | 0.00 | 0.00 | 50 | 1010.1 |
| 20260509182619 | 70 | 80 | 4.3 | 7.0 | 0.00 | 0.00 | 0.00 | 49 | 1010.3 |
| 20260509182117 | 70 | 128 | 4.3 | 9.6 | 0.00 | 0.00 | 0.00 | 47 | 1010.4 |
| 20260509181615 | 70 | 340 | 3.5 | 6.1 | 0.00 | 0.00 | 0.00 | 51 | 1010.4 |
| 20260509181112 | 70 | 109 | 2.6 | 6.1 | 0.00 | 0.00 | 0.00 | 47 | 1010.8 |
| 20260509180609 | 70 | 31 | 2.6 | 8.7 | 0.00 | 0.00 | 0.00 | 49 | 1010.6 |
| 20260509180105 | 70 | 171 | 0.0 | 2.6 | 0.00 | 0.00 | 0.00 | 47 | 1010.8 |
| 20260509175601 | 69 | 154 | 6.1 | 7.0 | 0.00 | 0.00 | 0.00 | 49 | 1010.7 |
| 20260509175058 | 70 | 63 | 4.3 | 9.6 | 0.00 | 0.00 | 0.00 | 48 | 1010.6 |
| 20260509174554 | 70 | 165 | 2.6 | 6.1 | 0.00 | 0.00 | 0.00 | 48 | 1010.8 |
| 20260509174049 | 69 | 117 | 2.6 | 4.3 | 0.00 | 0.00 | 0.00 | 48 | 1010.8 |
| 20260509173544 | 69 | 99 | 0.0 | 2.6 | 0.00 | 0.00 | 0.00 | 49 | 1010.6 |
| 20260509173040 | 69 | 63 | 6.1 | 11.3 | 0.00 | 0.00 | 0.00 | 47 | 1010.7 |
| 20260509172538 | 68 | 114 | 6.1 | 9.6 | 0.00 | 0.00 | 0.00 | 46 | 1011.0 |
| 20260509172033 | 69 | 77 | 3.5 | 7.0 | 0.00 | 0.00 | 0.00 | 48 | 1010.9 |
| 20260509171530 | 69 | 75 | 2.6 | 8.7 | 0.00 | 0.00 | 0.00 | 49 | 1011.2 |
| 20260509171026 | 68 | 275 | 1.7 | 6.1 | 0.00 | 0.00 | 0.00 | 49 | 1011.3 |
| 20260509170521 | 69 | 1 | 2.6 | 6.1 | 0.00 | 0.00 | 0.00 | 48 | 1011.3 |
| 20260509170018 | 68 | 89 | 0.0 | 4.3 | 0.00 | 0.00 | 0.00 | 49 | 1011.4 |
| 20260509165517 | 68 | 181 | 0.0 | 2.6 | 0.00 | 0.00 | 0.00 | 46 | 1011.6 |
| 20260509165012 | 68 | 150 | 0.9 | 7.0 | 0.00 | 0.00 | 0.00 | 46 | 1011.5 |
| 20260509164509 | 69 | 176 | 3.5 | 6.1 | 0.00 | 0.00 | 0.00 | 45 | 1011.4 |
| 20260509164004 | 69 | 80 | 2.6 | 6.1 | 0.00 | 0.00 | 0.00 | 44 | 1011.4 |
| 20260509163502 | 70 | 107 | 4.3 | 7.0 | 0.00 | 0.00 | 0.00 | 45 | 1011.6 |
| 20260509163002 | 71 | 136 | 0.9 | 2.6 | 0.00 | 0.00 | 0.00 | 43 | 1011.4 |
| 20260509162500 | 71 | 34 | 2.6 | 4.3 | 0.00 | 0.00 | 0.00 | 43 | 1011.4 |
| 20260509161956 | 70 | 179 | 0.0 | 2.6 | 0.00 | 0.00 | 0.00 | 47 | 1011.4 |
| 20260509161452 | 71 | 132 | 3.5 | 6.1 | 0.00 | 0.00 | 0.00 | 44 | 1011.3 |
| 20260509160947 | 70 | 297 | 3.5 | 4.3 | 0.00 | 0.00 | 0.00 | 44 | 1011.2 |
| 20260509160444 | 69 | 62 | 0.9 | 2.6 | 0.00 | 0.00 | 0.00 | 47 | 1011.4 |
| 20260509155938 | 69 | 325 | 3.5 | 7.0 | 0.00 | 0.00 | 0.00 | 45 | 1011.2 |
| 20260509155436 | 69 | 234 | 2.6 | 6.1 | 0.00 | 0.00 | 0.00 | 45 | 1011.0 |
| 20260509154932 | 68 | 90 | 3.5 | 4.3 | 0.00 | 0.00 | 0.00 | 46 | 1011.0 |
| 20260509154428 | 69 | 134 | 0.0 | 4.3 | 0.00 | 0.00 | 0.00 | 45 | 1010.9 |
| 20260509153926 | 68 | 59 | 2.6 | 8.7 | 0.00 | 0.00 | 0.00 | 47 | 1011.4 |
| 20260509153422 | 69 | 195 | 0.0 | 8.7 | 0.00 | 0.00 | 0.00 | 46 | 1011.1 |
| 20260509152920 | 69 | 97 | 2.6 | 4.3 | 0.00 | 0.00 | 0.00 | 46 | 1011.3 |
| 20260509152415 | 69 | 114 | 4.3 | 6.1 | 0.00 | 0.00 | 0.00 | 47 | 1011.5 |
| 20260509151913 | 69 | 182 | 0.0 | 1.7 | 0.00 | 0.00 | 0.00 | 44 | 1011.4 |
| 20260509151408 | 69 | 89 | 0.9 | 2.6 | 0.00 | 0.00 | 0.00 | 46 | 1011.2 |
| 20260509150907 | 68 | 165 | 0.0 | 1.7 | 0.00 | 0.00 | 0.00 | 45 | 1011.5 |
| 20260509150404 | 68 | 177 | 4.3 | 4.3 | 0.00 | 0.00 | 0.00 | 46 | 1011.6 |
| 20260509145902 | 69 | 93 | 3.5 | 4.3 | 0.00 | 0.00 | 0.00 | 44 | 1011.6 |
| 20260509145401 | 68 | 168 | 1.7 | 4.3 | 0.00 | 0.00 | 0.00 | 46 | 1011.7 |
| 20260509144858 | 68 | 178 | 2.6 | 4.3 | 0.00 | 0.00 | 0.00 | 45 | 1011.8 |
| 20260509144355 | 68 | 356 | 2.6 | 4.3 | 0.00 | 0.00 | 0.00 | 48 | 1011.6 |
| 20260509143852 | 68 | 118 | 0.9 | 4.3 | 0.00 | 0.00 | 0.00 | 44 | 1011.8 |
| 20260509143349 | 67 | 83 | 2.6 | 4.3 | 0.00 | 0.00 | 0.00 | 44 | 1011.7 |
| 20260509142846 | 68 | 206 | 0.9 | 2.6 | 0.00 | 0.00 | 0.00 | 43 | 1011.7 |
| 20260509142342 | 67 | 146 | 0.9 | 2.6 | 0.00 | 0.00 | 0.00 | 44 | 1012.0 |
| 20260509141838 | 66 | 12 | 2.6 | 8.7 | 0.00 | 0.00 | 0.00 | 45 | 1012.2 |
| 20260509141335 | 67 | 180 | 2.6 | 2.6 | 0.00 | 0.00 | 0.00 | 46 | 1012.0 |
| 20260509140831 | 65 | 136 | 0.0 | 2.6 | 0.00 | 0.00 | 0.00 | 49 | 1011.9 |
| 20260509140328 | 66 | 324 | 2.6 | 4.3 | 0.00 | 0.00 | 0.00 | 47 | 1012.0 |
| 20260509135826 | 65 | 189 | 1.7 | 2.6 | 0.00 | 0.00 | 0.00 | 52 | 1012.3 |
| 20260509135323 | 64 | 186 | 0.0 | 1.7 | 0.00 | 0.00 | 0.00 | 51 | 1012.3 |
| 20260509134821 | 63 | 246 | 1.7 | 1.7 | 0.00 | 0.00 | 0.00 | 51 | 1012.5 |
| 20260509134318 | 63 | 249 | 1.7 | 2.6 | 0.00 | 0.00 | 0.00 | 52 | 1012.1 |
| 20260509133815 | 63 | 194 | 0.9 | 1.7 | 0.00 | 0.00 | 0.00 | 53 | 1012.4 |
| 20260509133311 | 62 | 195 | 0.0 | 2.6 | 0.00 | 0.00 | 0.00 | 55 | 1012.3 |
| 20260509132810 | 62 | 182 | 1.7 | 2.6 | 0.00 | 0.00 | 0.00 | 54 | 1012.3 |
| 20260509132308 | 62 | 195 | 0.0 | 2.6 | 0.00 | 0.00 | 0.00 | 53 | 1012.1 |
| 20260509131804 | 62 | 348 | 1.7 | 2.6 | 0.00 | 0.00 | 0.00 | 53 | 1012.2 |
| 20260509131301 | 61 | 308 | 1.7 | 2.6 | 0.00 | 0.00 | 0.00 | 51 | 1012.2 |
| 20260509130757 | 61 | 79 | 1.7 | 1.7 | 0.00 | 0.00 | 0.00 | 54 | 1012.2 |
| 20260509130253 | 60 | 172 | 0.0 | 1.7 | 0.00 | 0.00 | 0.00 | 56 | 1012.2 |
| 20260509125750 | 60 | 165 | 0.0 | 1.7 | 0.00 | 0.00 | 0.00 | 60 | 1012.3 |
| 20260509125247 | 60 | 189 | 0.9 | 1.7 | 0.00 | 0.00 | 0.00 | 59 | 1012.3 |
| 20260509124744 | 59 | 163 | 0.0 | 0.0 | 0.00 | 0.00 | 0.00 | 60 | 1012.3 |
| 20260509124240 | 59 | 168 | 0.0 | 0.0 | 0.00 | 0.00 | 0.00 | 61 | 1012.4 |
| 20260509123738 | 59 | 163 | 0.0 | 1.7 | 0.00 | 0.00 | 0.00 | 63 | 1012.0 |
| 20260509123235 | 59 | 171 | 0.9 | 1.7 | 0.00 | 0.00 | 0.00 | 58 | 1011.9 |
| 20260509122731 | 59 | 142 | 0.0 | 1.7 | 0.00 | 0.00 | 0.00 | 54 | 1012.0 |
| 20260509122228 | 59 | 157 | 0.0 | 0.0 | 0.00 | 0.00 | 0.00 | 55 | 1012.3 |
| 20260509121725 | 59 | 179 | 0.0 | 1.7 | 0.00 | 0.00 | 0.00 | 57 | 1012.2 |
| 20260509121222 | 59 | 155 | 0.0 | 1.7 | 0.00 | 0.00 | 0.00 | 56 | 1012.2 |
| 20260509120720 | 59 | 158 | 0.0 | 0.0 | 0.00 | 0.00 | 0.00 | 53 | 1012.1 |
| 20260509120218 | 59 | 339 | 1.7 | 1.7 | 0.00 | 0.00 | 0.00 | 54 | 1012.1 |
| 20260509115715 | 58 | 89 | 2.6 | 2.6 | 0.00 | 0.00 | 0.00 | 55 | 1012.2 |
| 20260509115212 | 58 | 248 | 0.9 | 2.6 | 0.00 | 0.00 | 0.00 | 60 | 1012.0 |
| 20260509114711 | 57 | 135 | 0.9 | 1.7 | 0.00 | 0.00 | 0.00 | 59 | 1011.9 |
| 20260509114209 | 57 | 177 | 0.0 | 0.0 | 0.00 | 0.00 | 0.00 | 59 | 1011.9 |
| 20260509113708 | 57 | 130 | 1.7 | 1.7 | 0.00 | 0.00 | 0.00 | 63 | 1011.9 |
| 20260509113204 | 57 | 28 | 1.7 | 1.7 | 0.00 | 0.00 | 0.00 | 60 | 1012.0 |
| 20260509112701 | 57 | 118 | 0.9 | 1.7 | 0.00 | 0.00 | 0.00 | 60 | 1011.9 |
| 20260509112158 | 57 | 140 | 0.0 | 1.7 | 0.00 | 0.00 | 0.00 | 60 | 1012.0 |
| 20260509111655 | 57 | 135 | 0.0 | 1.7 | 0.00 | 0.00 | 0.00 | 61 | 1011.9 |
| 20260509111151 | 57 | 174 | 0.0 | 1.7 | 0.00 | 0.00 | 0.00 | 59 | 1011.7 |
| 20260509110649 | 57 | 182 | 0.0 | 0.0 | 0.00 | 0.00 | 0.00 | 61 | 1012.0 |
| 20260509110145 | 57 | 161 | 0.0 | 1.7 | 0.00 | 0.00 | 0.00 | 58 | 1012.0 |
| 20260509105644 | 56 | 132 | 0.0 | 2.6 | 0.00 | 0.00 | 0.00 | 56 | 1011.9 |
| 20260509105141 | 56 | 96 | 0.9 | 1.7 | 0.00 | 0.00 | 0.00 | 61 | 1011.8 |
| 20260509104638 | 56 | 155 | 0.0 | 1.7 | 0.00 | 0.00 | 0.00 | 60 | 1011.8 |
| 20260509104135 | 55 | 133 | 0.0 | 1.7 | 0.00 | 0.00 | 0.00 | 60 | 1011.7 |
| 20260509103633 | 55 | 96 | 0.9 | 1.7 | 0.00 | 0.00 | 0.00 | 61 | 1011.8 |
| 20260509103130 | 55 | 176 | 0.0 | 1.7 | 0.00 | 0.00 | 0.00 | 63 | 1011.7 |
| 20260509102628 | 55 | 221 | 1.7 | 1.7 | 0.00 | 0.00 | 0.00 | 63 | 1011.8 |
| 20260509102124 | 56 | 220 | 1.7 | 1.7 | 0.00 | 0.00 | 0.00 | 58 | 1011.9 |
| 20260509101621 | 57 | 121 | 0.9 | 1.7 | 0.00 | 0.00 | 0.00 | 58 | 1011.9 |
| 20260509101118 | 57 | 241 | 4.3 | 4.3 | 0.00 | 0.00 | 0.00 | 61 | 1011.8 |
| 20260509100615 | 56 | 71 | 0.9 | 2.6 | 0.00 | 0.00 | 0.00 | 55 | 1011.6 |
| 20260509100112 | 55 | 158 | 0.0 | 1.7 | 0.00 | 0.00 | 0.00 | 60 | 1011.6 |
| 20260509095608 | 55 | 152 | 0.0 | 0.0 | 0.00 | 0.00 | 0.00 | 59 | 1011.8 |
| 20260509095106 | 55 | 164 | 0.9 | 1.7 | 0.00 | 0.00 | 0.00 | 59 | 1011.8 |
| 20260509094602 | 56 | 181 | 0.0 | 1.7 | 0.00 | 0.00 | 0.00 | 60 | 1012.0 |
| 20260509094059 | 56 | 124 | 0.0 | 0.0 | 0.00 | 0.00 | 0.00 | 59 | 1011.8 |
| 20260509093558 | 56 | 181 | 0.0 | 0.0 | 0.00 | 0.00 | 0.00 | 59 | 1011.9 |
| 20260509093055 | 56 | 188 | 0.0 | 1.7 | 0.00 | 0.00 | 0.00 | 57 | 1011.7 |
| 20260509092552 | 57 | 219 | 0.0 | 1.7 | 0.00 | 0.00 | 0.00 | 57 | 1011.8 |
| 20260509092051 | 57 | 156 | 0.0 | 0.0 | 0.00 | 0.00 | 0.00 | 56 | 1011.7 |
| 20260509091548 | 57 | 142 | 1.7 | 1.7 | 0.00 | 0.00 | 0.00 | 54 | 1011.9 |
| 20260509091044 | 57 | 225 | 0.9 | 1.7 | 0.00 | 0.00 | 0.00 | 56 | 1011.7 |
| 20260509090542 | 57 | 354 | 0.0 | 2.6 | 0.00 | 0.00 | 0.00 | 56 | 1011.6 |
| 20260509090040 | 57 | 159 | 0.0 | 2.6 | 0.00 | 0.00 | 0.00 | 54 | 1011.7 |
| 20260509085537 | 57 | 184 | 0.0 | 0.0 | 0.00 | 0.00 | 0.00 | 54 | 1011.8 |
| 20260509085033 | 57 | 196 | 0.0 | 2.6 | 0.00 | 0.00 | 0.00 | 54 | 1011.9 |
| 20260509084530 | 57 | 159 | 1.7 | 2.6 | 0.00 | 0.00 | 0.00 | 53 | 1011.9 |
| 20260509084027 | 58 | 106 | 0.9 | 2.6 | 0.00 | 0.00 | 0.00 | 53 | 1011.7 |
| 20260509083524 | 58 | 156 | 0.0 | 1.7 | 0.00 | 0.00 | 0.00 | 53 | 1012.0 |
| 20260509083021 | 58 | 144 | 0.9 | 2.6 | 0.00 | 0.00 | 0.00 | 52 | 1012.0 |
| 20260509082518 | 59 | 106 | 0.9 | 2.6 | 0.00 | 0.00 | 0.00 | 51 | 1012.1 |
| 20260509082015 | 59 | 82 | 2.6 | 2.6 | 0.00 | 0.00 | 0.00 | 51 | 1012.2 |
| 20260509081513 | 59 | 128 | 2.6 | 2.6 | 0.00 | 0.00 | 0.00 | 50 | 1011.9 |
| 20260509081009 | 60 | 55 | 1.7 | 4.3 | 0.00 | 0.00 | 0.00 | 49 | 1012.0 |
| 20260509080507 | 61 | 207 | 0.9 | 2.6 | 0.00 | 0.00 | 0.00 | 50 | 1012.1 |
| 20260509080005 | 62 | 174 | 2.6 | 4.3 | 0.00 | 0.00 | 0.00 | 44 | 1012.0 |
| 20260509075502 | 62 | 193 | 2.6 | 2.6 | 0.00 | 0.00 | 0.00 | 42 | 1012.1 |
| 20260509075000 | 62 | 208 | 2.6 | 2.6 | 0.00 | 0.00 | 0.00 | 43 | 1012.0 |
| 20260509074457 | 62 | 207 | 0.9 | 1.7 | 0.00 | 0.00 | 0.00 | 43 | 1012.1 |
| 20260509073953 | 62 | 191 | 2.6 | 6.1 | 0.00 | 0.00 | 0.00 | 43 | 1012.2 |
| 20260509073450 | 62 | 246 | 2.6 | 6.1 | 0.00 | 0.00 | 0.00 | 43 | 1011.8 |
| 20260509072946 | 62 | 196 | 1.7 | 8.7 | 0.00 | 0.00 | 0.00 | 43 | 1012.3 |
| 20260509072443 | 61 | 270 | 5.2 | 7.0 | 0.00 | 0.00 | 0.00 | 43 | 1012.2 |
| 20260509071940 | 61 | 230 | 1.7 | 4.3 | 0.00 | 0.00 | 0.00 | 44 | 1012.2 |
| 20260509071436 | 61 | 221 | 4.3 | 4.3 | 0.00 | 0.00 | 0.00 | 43 | 1012.0 |
| 20260509070934 | 62 | 176 | 6.1 | 8.7 | 0.00 | 0.00 | 0.00 | 43 | 1012.1 |
| 20260509070431 | 61 | 148 | 1.7 | 2.6 | 0.00 | 0.00 | 0.00 | 43 | 1012.1 |
| 20260509065926 | 62 | 250 | 2.6 | 4.3 | 0.00 | 0.00 | 0.00 | 43 | 1012.1 |
| 20260509065422 | 62 | 202 | 2.6 | 6.1 | 0.00 | 0.00 | 0.00 | 43 | 1012.1 |
| 20260509064919 | 62 | 169 | 1.7 | 6.1 | 0.00 | 0.00 | 0.00 | 43 | 1012.1 |
| 20260509064417 | 62 | 197 | 3.5 | 7.0 | 0.00 | 0.00 | 0.00 | 42 | 1012.4 |
| 20260509063914 | 62 | 191 | 1.7 | 7.0 | 0.00 | 0.00 | 0.00 | 43 | 1012.5 |
| 20260509063410 | 62 | 253 | 3.5 | 7.0 | 0.00 | 0.00 | 0.00 | 43 | 1012.5 |
| 20260509062907 | 62 | 201 | 7.8 | 11.3 | 0.00 | 0.00 | 0.00 | 43 | 1012.3 |
| 20260509062404 | 62 | 231 | 5.2 | 9.6 | 0.00 | 0.00 | 0.00 | 43 | 1012.5 |
| 20260509061902 | 62 | 200 | 4.3 | 12.2 | 0.00 | 0.00 | 0.00 | 43 | 1012.4 |
| 20260509061400 | 62 | 183 | 1.7 | 12.2 | 0.00 | 0.00 | 0.00 | 42 | 1012.4 |
| 20260509060856 | 62 | 125 | 3.5 | 13.9 | 0.00 | 0.00 | 0.00 | 43 | 1012.6 |
| 20260509060353 | 62 | 187 | 6.1 | 13.9 | 0.00 | 0.00 | 0.00 | 42 | 1012.5 |
| 20260509055848 | 63 | 175 | 6.1 | 9.6 | 0.00 | 0.00 | 0.00 | 42 | 1012.7 |
| 20260509055344 | 63 | 264 | 6.1 | 12.2 | 0.00 | 0.00 | 0.00 | 42 | 1012.5 |
| 20260509054841 | 63 | 214 | 5.2 | 8.7 | 0.00 | 0.00 | 0.00 | 42 | 1012.4 |
| 20260509054338 | 62 | 217 | 2.6 | 11.3 | 0.00 | 0.00 | 0.00 | 42 | 1012.5 |
| 20260509053836 | 62 | 231 | 4.3 | 11.3 | 0.00 | 0.00 | 0.00 | 42 | 1012.5 |
| 20260509053333 | 62 | 200 | 6.1 | 11.3 | 0.00 | 0.00 | 0.00 | 43 | 1012.4 |
| 20260509052832 | 62 | 181 | 6.1 | 13.9 | 0.00 | 0.00 | 0.00 | 43 | 1012.7 |
| 20260509052329 | 63 | 225 | 7.0 | 9.6 | 0.00 | 0.00 | 0.00 | 42 | 1012.3 |
| 20260509051826 | 63 | 239 | 4.3 | 9.6 | 0.00 | 0.00 | 0.00 | 41 | 1012.8 |
| 20260509051324 | 63 | 122 | 2.6 | 8.7 | 0.00 | 0.00 | 0.00 | 42 | 1012.5 |
| 20260509050820 | 63 | 215 | 0.9 | 7.0 | 0.00 | 0.00 | 0.00 | 43 | 1012.6 |
| 20260509050318 | 63 | 190 | 0.9 | 7.0 | 0.00 | 0.00 | 0.00 | 43 | 1012.8 |
| 20260509045814 | 63 | 214 | 4.3 | 8.7 | 0.00 | 0.00 | 0.00 | 43 | 1012.7 |
| 20260509045311 | 63 | 197 | 3.5 | 7.0 | 0.00 | 0.00 | 0.00 | 43 | 1012.8 |
| 20260509044808 | 63 | 203 | 7.8 | 8.7 | 0.00 | 0.00 | 0.00 | 43 | 1012.4 |
| 20260509044306 | 63 | 209 | 5.2 | 7.0 | 0.00 | 0.00 | 0.00 | 44 | 1012.5 |
| 20260509043802 | 63 | 171 | 4.3 | 11.3 | 0.00 | 0.00 | 0.00 | 44 | 1012.5 |
| 20260509043258 | 63 | 27 | 2.6 | 9.6 | 0.00 | 0.00 | 0.00 | 43 | 1012.6 |
| 20260509042754 | 63 | 234 | 5.2 | 8.7 | 0.00 | 0.00 | 0.00 | 44 | 1012.6 |
| 20260509042251 | 62 | 207 | 3.5 | 7.0 | 0.00 | 0.00 | 0.00 | 45 | 1012.5 |
| 20260509041748 | 60 | 189 | 3.5 | 6.1 | 0.00 | 0.00 | 0.00 | 48 | 1012.4 |
| 20260509041245 | 57 | 176 | 0.0 | 9.6 | 0.00 | 0.00 | 0.00 | 55 | 1012.5 |
| 20260509040743 | 57 | 338 | 0.9 | 2.6 | 0.00 | 0.00 | 0.00 | 63 | 1012.5 |
| 20260509040240 | 53 | 158 | 1.7 | 2.6 | 0.00 | 0.00 | 0.00 | 68 | 1012.6 |
| 20260509035737 | 53 | 355 | 2.6 | 2.6 | 0.00 | 0.00 | 0.00 | 69 | 1012.6 |
| 20260509035233 | 53 | 189 | 0.0 | 1.7 | 0.00 | 0.00 | 0.00 | 71 | 1012.6 |
| 20260509034731 | 53 | 136 | 0.0 | 0.0 | 0.00 | 0.00 | 0.00 | 70 | 1012.7 |
| 20260509034228 | 53 | 171 | 0.9 | 1.7 | 0.00 | 0.00 | 0.00 | 69 | 1013.0 |
| 20260509033725 | 52 | 130 | 2.6 | 4.3 | 0.00 | 0.00 | 0.00 | 68 | 1012.9 |
| 20260509033222 | 51 | 165 | 0.0 | 2.6 | 0.00 | 0.00 | 0.00 | 72 | 1012.9 |
| 20260509032719 | 50 | 59 | 0.9 | 2.6 | 0.00 | 0.00 | 0.00 | 74 | 1013.0 |
| 20260509032216 | 50 | 143 | 0.0 | 1.7 | 0.00 | 0.00 | 0.00 | 74 | 1012.9 |
| 20260509031714 | 50 | 173 | 0.0 | 0.0 | 0.00 | 0.00 | 0.00 | 74 | 1012.8 |
| 20260509031211 | 49 | 216 | 0.9 | 2.6 | 0.00 | 0.00 | 0.00 | 73 | 1012.7 |
| 20260509030709 | 48 | 147 | 0.0 | 0.0 | 0.00 | 0.00 | 0.00 | 76 | 1012.7 |
| 20260509030206 | 48 | 169 | 0.0 | 0.0 | 0.00 | 0.00 | 0.00 | 75 | 1013.1 |
| 20260509025702 | 49 | 121 | 0.0 | 1.7 | 0.00 | 0.00 | 0.00 | 75 | 1013.1 |
| 20260509025158 | 49 | 158 | 0.0 | 1.7 | 0.00 | 0.00 | 0.00 | 74 | 1012.8 |
| 20260509024653 | 49 | 156 | 0.0 | 0.0 | 0.00 | 0.00 | 0.00 | 74 | 1013.1 |
| 20260509024149 | 49 | 154 | 0.0 | 1.7 | 0.00 | 0.00 | 0.00 | 73 | 1013.0 |
| 20260509023648 | 49 | 169 | 0.0 | 0.0 | 0.00 | 0.00 | 0.00 | 72 | 1013.0 |
| 20260509023144 | 50 | 157 | 0.0 | 1.7 | 0.00 | 0.00 | 0.00 | 71 | 1013.1 |
| 20260509022640 | 50 | 152 | 0.0 | 1.7 | 0.00 | 0.00 | 0.00 | 72 | 1013.2 |
| 20260509022138 | 50 | 168 | 0.0 | 0.0 | 0.00 | 0.00 | 0.00 | 70 | 1012.9 |
| 20260509021635 | 51 | 169 | 0.0 | 0.0 | 0.00 | 0.00 | 0.00 | 70 | 1012.8 |
| 20260509021132 | 51 | 162 | 0.0 | 0.0 | 0.00 | 0.00 | 0.00 | 70 | 1013.1 |
| 20260509020630 | 51 | 162 | 0.0 | 0.0 | 0.00 | 0.00 | 0.00 | 68 | 1012.9 |
| 20260509020127 | 52 | 169 | 0.0 | 0.0 | 0.00 | 0.00 | 0.00 | 68 | 1012.9 |
| 20260509015626 | 52 | 169 | 0.0 | 0.0 | 0.00 | 0.00 | 0.00 | 68 | 1013.0 |
| 20260509015123 | 52 | 178 | 0.0 | 0.0 | 0.00 | 0.00 | 0.00 | 67 | 1012.9 |
| 20260509014619 | 53 | 167 | 0.0 | 0.0 | 0.00 | 0.00 | 0.00 | 67 | 1013.1 |
| 20260509014116 | 53 | 167 | 0.0 | 0.0 | 0.00 | 0.00 | 0.00 | 65 | 1013.0 |
| 20260509013613 | 54 | 167 | 0.0 | 1.7 | 0.00 | 0.00 | 0.00 | 65 | 1012.8 |
| 20260509013108 | 55 | 167 | 0.0 | 0.0 | 0.00 | 0.00 | 0.00 | 63 | 1012.9 |
| 20260509012606 | 56 | 166 | 0.0 | 0.0 | 0.00 | 0.00 | 0.00 | 62 | 1012.7 |
| 20260509012102 | 57 | 185 | 0.0 | 0.0 | 0.00 | 0.00 | 0.00 | 62 | 1012.8 |
| 20260509011600 | 57 | 192 | 0.0 | 1.7 | 0.00 | 0.00 | 0.00 | 59 | 1012.8 |
| 20260509011057 | 58 | 161 | 0.0 | 1.7 | 0.00 | 0.00 | 0.00 | 57 | 1012.8 |
| 20260509010555 | 58 | 160 | 1.7 | 2.6 | 0.00 | 0.00 | 0.00 | 58 | 1012.6 |
| 20260509010051 | 59 | 27 | 0.9 | 1.7 | 0.00 | 0.00 | 0.00 | 56 | 1012.6 |
| 20260509005549 | 60 | 203 | 0.0 | 1.7 | 0.00 | 0.00 | 0.00 | 53 | 1012.7 |
| 20260509005044 | 61 | 157 | 0.0 | 1.7 | 0.00 | 0.00 | 0.00 | 50 | 1012.7 |
| 20260509004541 | 62 | 163 | 0.0 | 1.7 | 0.00 | 0.00 | 0.00 | 52 | 1012.5 |
| 20260509004038 | 62 | 165 | 0.9 | 1.7 | 0.00 | 0.00 | 0.00 | 49 | 1012.4 |
| 20260509003536 | 63 | 214 | 0.0 | 2.6 | 0.00 | 0.00 | 0.00 | 50 | 1012.4 |
| 20260509003033 | 63 | 181 | 0.0 | 1.7 | 0.00 | 0.00 | 0.00 | 49 | 1012.2 |
| 20260509002531 | 63 | 185 | 0.0 | 1.7 | 0.00 | 0.00 | 0.00 | 48 | 1012.2 |
| 20260509002027 | 64 | 176 | 0.0 | 1.7 | 0.00 | 0.00 | 0.00 | 46 | 1012.2 |
| 20260509001525 | 64 | 157 | 0.0 | 0.0 | 0.00 | 0.00 | 0.00 | 47 | 1012.4 |
| 20260509001021 | 65 | 157 | 0.0 | 0.0 | 0.00 | 0.00 | 0.00 | 45 | 1012.2 |
| 20260509000519 | 65 | 150 | 0.0 | 0.0 | 0.00 | 0.00 | 0.00 | 45 | 1012.0 |
| 20260509000015 | 66 | 155 | 0.0 | 1.7 | 0.00 | 0.00 | 0.00 | 43 | 1012.2 |
| 20260508235513 | 66 | 163 | 0.0 | 0.0 | 0.00 | 0.00 | 0.00 | 46 | 1012.0 |
| 20260508235009 | 67 | 169 | 0.0 | 0.0 | 0.00 | 0.00 | 0.00 | 43 | 1011.9 |
| 20260508234507 | 68 | 174 | 0.0 | 0.0 | 0.00 | 0.00 | 0.00 | 39 | 1011.7 |
| 20260508234004 | 68 | 175 | 0.0 | 0.0 | 0.00 | 0.00 | 0.00 | 39 | 1012.0 |
| 20260508233503 | 69 | 172 | 0.0 | 0.0 | 0.00 | 0.00 | 0.00 | 39 | 1012.1 |
| 20260508233000 | 69 | 162 | 0.0 | 0.0 | 0.00 | 0.00 | 0.00 | 37 | 1011.9 |
| 20260508232457 | 68 | 159 | 0.0 | 0.0 | 0.00 | 0.00 | 0.00 | 39 | 1011.9 |
| 20260508231953 | 68 | 162 | 0.0 | 0.0 | 0.00 | 0.00 | 0.00 | 37 | 1011.9 |
| 20260508231451 | 69 | 161 | 0.0 | 1.7 | 0.00 | 0.00 | 0.00 | 37 | 1011.8 |
| 20260508230948 | 69 | 186 | 0.0 | 1.7 | 0.00 | 0.00 | 0.00 | 36 | 1012.0 |
| 20260508230444 | 69 | 158 | 0.9 | 2.6 | 0.00 | 0.00 | 0.00 | 35 | 1011.8 |
| 20260508225941 | 70 | 175 | 0.0 | 4.3 | 0.00 | 0.00 | 0.00 | 35 | 1011.8 |
| 20260508225438 | 70 | 200 | 2.6 | 2.6 | 0.00 | 0.00 | 0.00 | 33 | 1012.2 |
| 20260508224936 | 70 | 181 | 2.6 | 4.3 | 0.00 | 0.00 | 0.00 | 33 | 1012.1 |
| 20260508224433 | 70 | 158 | 0.0 | 2.6 | 0.00 | 0.00 | 0.00 | 32 | 1011.9 |
| 20260508223931 | 71 | 201 | 4.3 | 6.1 | 0.00 | 0.00 | 0.00 | 32 | 1011.6 |
| 20260508223429 | 71 | 168 | 0.9 | 1.7 | 0.00 | 0.00 | 0.00 | 35 | 1011.5 |
| 20260508222925 | 72 | 162 | 0.0 | 0.0 | 0.00 | 0.00 | 0.00 | 29 | 1011.9 |
| 20260508222423 | 72 | 84 | 1.7 | 1.7 | 0.00 | 0.00 | 0.00 | 28 | 1011.8 |
| 20260508221919 | 73 | 130 | 1.7 | 1.7 | 0.00 | 0.00 | 0.00 | 28 | 1011.7 |
| 20260508221414 | 75 | 164 | 1.7 | 2.6 | 0.00 | 0.00 | 0.00 | 27 | 1011.8 |
| 20260508220911 | 75 | 167 | 0.0 | 1.7 | 0.00 | 0.00 | 0.00 | 26 | 1011.6 |
| 20260508220408 | 73 | 0 | 0.9 | 1.7 | 0.00 | 0.00 | 0.00 | 29 | 1011.5 |
| 20260508215904 | 73 | 305 | 2.6 | 2.6 | 0.00 | 0.00 | 0.00 | 29 | 1011.5 |
| 20260508215401 | 74 | 289 | 0.9 | 6.1 | 0.00 | 0.00 | 0.00 | 27 | 1011.4 |
| 20260508214858 | 75 | 285 | 3.5 | 6.1 | 0.00 | 0.00 | 0.00 | 28 | 1011.7 |
| 20260508214355 | 74 | 358 | 2.6 | 4.3 | 0.00 | 0.00 | 0.00 | 26 | 1011.5 |
| 20260508213851 | 74 | 135 | 4.3 | 8.7 | 0.00 | 0.00 | 0.00 | 28 | 1011.9 |
| 20260508213348 | 73 | 211 | 1.7 | 4.3 | 0.00 | 0.00 | 0.00 | 28 | 1011.8 |